Weather History for West Plains, MO

Change the Weather History Date:

Saturday, June 23, 2012

  Actual Average Record
Temperature  
Mean Temperature 75 °F 76 °F  
Max Temperature 90 °F 86 °F 99 °F (1952)
Min Temperature 59 °F 65 °F 45 °F (1992)
Degree Days  
Heating Degree Days 0 0  
Month to date heating degree days 5 4  
Since 1 June heating degree days 5 4  
Since 1 July heating degree days 3441 4346  
Cooling Degree Days 10 11  
Month to date cooling degree days 183 187  
Year to date cooling degree days 465 309  
Since 1 June cooling degree days 183 187  
Growing Degree Days 24 (Base 50)    
Moisture  
Dew Point 56 °F    
Average Humidity 58    
Maximum Humidity 84    
Minimum Humidity 32    
Precipitation  
Precipitation 0.00 in 0.13 in 4.65 in (1976)
Month to date precipitation 2.67 3.09  
Year to date precipitation 16.46 22.36  
Sea Level Pressure  
Sea Level Pressure 29.97 in    
Wind  
Wind Speed 5 mph (ESE)    
Max Wind Speed 12 mph    
Max Gust Speed 15 mph    
Visibility 10 miles    
Events      
T = Trace of Precipitation, MM = Missing Value Source: NWS Daily Summary

Daily Weather History Graph

Daily Weather History Graph

Search for Another Location

Airport:

Trip Planner

Search our weather history database for the weather conditions in past years. The results will help you decide how hot, cold, wet, or windy it might be!

Date:

Astronomy

Jun. 23, 2012 Rise Set
Actual Time 5:49 AM CDT 8:30 PM CDT
Civil Twilight 5:18 AM CDT 9:01 PM CDT
Nautical Twilight 4:40 AM CDT 9:39 PM CDT
Astronomical Twilight 3:56 AM CDT 10:22 PM CDT
Moon 9:45 AM CDT (6/23) 11:05 PM CDT (6/23)
Length of Visible Light 15h 42m
Length of Day
14h 41m
Waxing Crescent, 16% of the Moon is Illuminated
Jun 23
Waxing Crescent
Jun 26
First Quarter
Jul 3
Full
Jul 10
Last Quarter
Jul 18
New

Hourly Weather History & Observations

Time (CDT) Temp. Heat Index Dew Point Humidity Pressure Visibility Wind Dir Wind Speed Gust Speed Precip Events Conditions
12:53 AM 66.9 °F - 55.9 °F 68% 29.96 in 10.0 mi ENE 4.6 mph - N/A   Clear
1:53 AM 69.1 °F - 55.9 °F 63% 29.96 in 10.0 mi Calm Calm - N/A   Clear
2:53 AM 68.0 °F - 55.9 °F 65% 29.96 in 10.0 mi Calm Calm - N/A   Clear
3:53 AM 60.1 °F - 55.9 °F 86% 29.98 in 10.0 mi NE 3.5 mph - N/A   Clear
4:53 AM 62.1 °F - 55.9 °F 80% 29.97 in 10.0 mi Calm Calm - N/A   Clear
5:53 AM 61.0 °F - 55.0 °F 81% 29.98 in 10.0 mi Calm Calm - N/A   Clear
6:53 AM 64.9 °F - 57.9 °F 78% 30.00 in 10.0 mi Calm Calm - N/A   Clear
8:53 AM 73.9 °F - 57.0 °F 55% 30.02 in 10.0 mi ESE 6.9 mph - N/A   Clear
9:53 AM 79.0 °F - 57.0 °F 47% 30.01 in 10.0 mi ESE 10.4 mph - N/A   Clear
10:53 AM 80.1 °F 80.6 °F 57.9 °F 47% 30.01 in 10.0 mi ESE 5.8 mph - N/A   Clear
11:53 AM 81.0 °F 81.3 °F 59.0 °F 47% 30.00 in 10.0 mi East 5.8 mph - N/A   Clear
12:53 PM 82.9 °F 82.6 °F 57.9 °F 42% 29.99 in 10.0 mi East 8.1 mph - N/A   Clear
1:53 PM 86.0 °F 84.9 °F 57.0 °F 37% 29.99 in 10.0 mi Variable 5.8 mph - N/A   Clear
2:53 PM 87.1 °F 86.1 °F 57.9 °F 37% 29.98 in 10.0 mi ESE 5.8 mph - N/A   Clear
3:53 PM 89.1 °F 88.0 °F 57.9 °F 35% 29.94 in 10.0 mi ESE 9.2 mph - N/A   Clear
4:53 PM 89.1 °F 87.7 °F 57.0 °F 34% 29.92 in 10.0 mi East 8.1 mph - N/A   Clear
5:53 PM 89.1 °F 87.3 °F 55.9 °F 32% 29.92 in 10.0 mi ESE 5.8 mph - N/A   Clear
6:53 PM 87.1 °F 85.7 °F 55.9 °F 35% 29.92 in 10.0 mi ESE 6.9 mph - N/A   Clear
7:53 PM 84.0 °F 83.0 °F 55.9 °F 38% 29.95 in 10.0 mi East 4.6 mph - N/A   Clear
8:53 PM 79.0 °F - 55.9 °F 45% 29.95 in 10.0 mi ESE 5.8 mph - N/A   Clear
9:53 PM 79.0 °F - 53.1 °F 40% 29.97 in 10.0 mi ESE 4.6 mph - N/A   Clear
10:53 PM 75.9 °F - 53.1 °F 45% 29.98 in 10.0 mi SE 4.6 mph - N/A   Clear
11:53 PM 73.0 °F - 55.0 °F 53% 29.98 in 10.0 mi South 3.5 mph - N/A   Clear